Location: Newark
(44.3681°N, 100.3364°W)
Time: 14:18:01
(UTC+00:00)

S-56A Canister/Altair - Pass Details

Date: 06 March 2020
Orbit: 634 x 2498 km, 38.9° (Epoch: 29 March)

Event Time Altitude Azimuth Distance (km) Brightness Sun altitude
Rises 16:11:34 0° 262° (W) 4,937 11.3 28.6°
Reaches altitude 10° 16:14:27 10° 260° (W) 4,164 11.0 29.0°
Maximum altitude 16:26:14 70° 180° (S) 2,387 10.8 30.5°
Drops below altitude 10° 16:41:13 10° 102° (ESE) 5,162 12.6 32.3°
Sets 16:45:14 0° 100° (E) 6,143 12.8 32.7°
